"Sample Date","Sample Time","Sensor Name","Sample Value","Units","Flow Rate","Sample Interval","Sample Volume","Laser Status","Number Channels","Micron Size 0","Counts/Channel 0","Micron Size 1","Counts/Channel 1","Micron Size 2","Counts/Channel 2","Micron Size 3","Counts/Channel 3","Micron Size 4","Counts/Channel 4","Micron Size 5","Counts/Channel 5","Micron Size 6","Counts/Channel 6","Micron Size 7","Counts/Channel 7","Micron Size 8","Counts/Channel 8","Micron Size 9","Counts/Channel 9","Micron Size 10","Counts/Channel 10","Micron Size 11","Counts/Channel 11","Micron Size 12","Counts/Channel 12","Micron Size 13","Counts/Channel 13","Micron Size 14","Counts/Channel 14","Micron Size 15","Counts/Channel 15","Micron Size 16","Counts/Channel 16","Micron Size 17","Counts/Channel 17","Micron Size 18","Counts/Channel 18","Micron Size 19","Counts/Channel 19","Micron Size 20","Counts/Channel 20","Micron Size 21","Counts/Channel 21","Micron Size 22","Counts/Channel 22","Micron Size 23","Counts/Channel 23","Micron Size 24","Counts/Channel 24","Micron Size 25","Counts/Channel 25","Micron Size 26","Counts/Channel 26","Micron Size 27","Counts/Channel 27","Micron Size 28","Counts/Channel 28","Micron Size 29","Counts/Channel 29","Micron Size 30","Counts/Channel 30","Micron Size 31","Counts/Channel 31"
"07/12/06","07:00:01","AMMA06",83715.000,"cc",28328.393,6.00,2832.839,1,6,0.100,38387.000,0.200,35957.000,0.300,7838.000,0.500,1015.000,1.000,518.000,5.000,0
"07/12/06","07:00:07","AMMA06",82677.000,"cc",28308.549,6.00,2830.855,1,6,0.100,37923.000,0.200,36074.000,0.300,7541.000,0.500,758.000,1.000,381.000,5.000,0
"07/12/06","07:00:13","AMMA06",82471.000,"cc",28315.193,6.00,2831.520,1,6,0.100,37913.000,0.200,35848.000,0.300,7558.000,0.500,772.000,1.000,380.000,5.000,0
"07/12/06","07:00:19","AMMA06",85542.000,"cc",28363.619,6.00,2836.362,1,6,0.100,38560.000,0.200,36740.000,0.300,8308.000,0.500,1241.000,1.000,693.000,5.000,0
"07/12/06","07:00:25","AMMA06",84649.000,"cc",28305.332,6.00,2830.533,1,6,0.100,38630.000,0.200,36219.000,0.300,8050.000,0.500,1127.000,1.000,623.000,5.000,0
"07/12/06","07:00:31","AMMA06",83845.000,"cc",28300.924,6.00,2830.093,1,6,0.100,38151.000,0.200,36418.000,0.300,7841.000,0.500,916.000,1.000,519.000,5.000,0
"07/12/06","07:00:37","AMMA06",85571.000,"cc",28331.561,6.00,2833.156,1,6,0.100,38591.000,0.200,36678.000,0.300,8398.000,0.500,1227.000,1.000,677.000,5.000,0
"07/12/06","07:00:43","AMMA06",87317.000,"cc",28295.555,6.00,2829.556,1,6,0.100,39379.000,0.200,37050.000,0.300,8599.000,0.500,1431.000,1.000,858.000,5.000,0
"07/12/06","07:00:49","AMMA06",83510.000,"cc",28347.635,6.00,2834.764,1,6,0.100,37951.000,0.200,36382.000,0.300,7822.000,0.500,873.000,1.000,482.000,5.000,0
"07/12/06","07:00:55","AMMA06",81850.000,"cc",28375.330,6.00,2837.533,1,6,0.100,37456.000,0.200,36076.000,0.300,7324.000,0.500,649.000,1.000,345.000,5.000,0
"07/12/06","07:01:01","AMMA06",83639.000,"cc",28256.590,6.00,2825.659,1,6,0.100,38033.000,0.200,36282.000,0.300,7900.000,0.500,907.000,1.000,517.000,5.000,0
"07/12/06","07:01:07","AMMA06",85642.000,"cc",28293.607,6.00,2829.361,1,6,0.100,38842.000,0.200,36622.000,0.300,8346.000,0.500,1159.000,1.000,673.000,5.000,0
"07/12/06","07:01:13","AMMA06",87081.000,"cc",28327.615,6.00,2832.762,1,6,0.100,39225.000,0.200,37056.000,0.300,8627.000,0.500,1399.000,1.000,774.000,5.000,0
"07/12/06","07:01:19","AMMA06",85941.000,"cc",28309.256,6.00,2830.926,1,6,0.100,39040.000,0.200,36584.000,0.300,8319.000,0.500,1302.000,1.000,696.000,5.000,0
"07/12/06","07:01:25","AMMA06",84449.000,"cc",28317.768,6.00,2831.777,1,6,0.100,38610.000,0.200,36584.000,0.300,7840.000,0.500,931.000,1.000,484.000,5.000,0
"07/12/06","07:01:31","AMMA06",81547.000,"cc",28323.807,6.00,2832.381,1,6,0.100,37554.000,0.200,36014.000,0.300,7196.000,0.500,552.000,1.000,231.000,5.000,0
"07/12/06","07:01:37","AMMA06",81989.000,"cc",28333.416,6.00,2833.342,1,6,0.100,37785.000,0.200,36067.000,0.300,7210.000,0.500,622.000,1.000,305.000,5.000,0
"07/12/06","07:01:43","AMMA06",83106.000,"cc",28294.527,6.00,2829.453,1,6,0.100,38114.000,0.200,36180.000,0.300,7571.000,0.500,807.000,1.000,434.000,5.000,0
"07/12/06","07:01:49","AMMA06",81484.000,"cc",28315.141,6.00,2831.514,1,6,0.100,37515.000,0.200,35606.000,0.300,7408.000,0.500,662.000,1.000,293.000,5.000,0
"07/12/06","07:01:55","AMMA06",81817.000,"cc",28260.359,6.00,2826.036,1,6,0.100,37883.000,0.200,35896.000,0.300,7169.000,0.500,607.000,1.000,262.000,5.000,0
"07/12/06","07:02:01","AMMA06",81804.000,"cc",28336.148,6.00,2833.615,1,6,0.100,38042.000,0.200,35706.000,0.300,7190.000,0.500,613.000,1.000,253.000,5.000,0
"07/12/06","07:02:07","AMMA06",81959.000,"cc",28348.678,6.00,2834.868,1,6,0.100,37630.000,0.200,35795.000,0.300,7410.000,0.500,749.000,1.000,375.000,5.000,0
"07/12/06","07:02:13","AMMA06",82656.000,"cc",28309.637,6.00,2830.964,1,6,0.100,38431.000,0.200,35774.000,0.300,7353.000,0.500,743.000,1.000,355.000,5.000,0
"07/12/06","07:02:19","AMMA06",81293.000,"cc",28367.861,6.00,2836.786,1,6,0.100,37819.000,0.200,35641.000,0.300,6987.000,0.500,596.000,1.000,250.000,5.000,0
"07/12/06","07:02:25","AMMA06",82834.000,"cc",28336.820,6.00,2833.682,1,6,0.100,38192.000,0.200,35800.000,0.300,7622.000,0.500,808.000,1.000,412.000,5.000,0
"07/12/06","07:02:31","AMMA06",85489.000,"cc",28310.440,6.00,2831.044,1,6,0.100,39255.000,0.200,36346.000,0.300,8081.000,0.500,1218.000,1.000,589.000,5.000,0
"07/12/06","07:02:37","AMMA06",85951.000,"cc",28270.543,6.00,2827.054,1,6,0.100,39303.000,0.200,36201.000,0.300,8421.000,0.500,1348.000,1.000,677.000,5.000,1.000
"07/12/06","07:02:43","AMMA06",86318.000,"cc",28308.553,6.00,2830.856,1,6,0.100,39817.000,0.200,36283.000,0.300,8205.000,0.500,1341.000,1.000,672.000,5.000,0
"07/12/06","07:02:49","AMMA06",84900.000,"cc",28328.109,6.00,2832.811,1,6,0.100,39063.000,0.200,35966.000,0.300,8070.000,0.500,1234.000,1.000,567.000,5.000,0
"07/12/06","07:02:55","AMMA06",82793.000,"cc",28330.922,6.00,2833.092,1,6,0.100,38401.000,0.200,35398.000,0.300,7702.000,0.500,843.000,1.000,449.000,5.000,0
"07/12/06","07:03:01","AMMA06",82859.000,"cc",28331.141,6.00,2833.114,1,6,0.100,38596.000,0.200,35574.000,0.300,7412.000,0.500,885.000,1.000,392.000,5.000,0
"07/12/06","07:03:07","AMMA06",84924.000,"cc",28276.918,6.00,2827.692,1,6,0.100,39400.000,0.200,35800.000,0.300,8031.000,0.500,1165.000,1.000,528.000,5.000,0
"07/12/06","07:03:13","AMMA06",82898.000,"cc",28283.875,6.00,2828.388,1,6,0.100,39120.000,0.200,35265.000,0.300,7267.000,0.500,868.000,1.000,378.000,5.000,0
"07/12/06","07:03:19","AMMA06",81877.000,"cc",28328.750,6.00,2832.875,1,6,0.100,38417.000,0.200,35323.000,0.300,7169.000,0.500,632.000,1.000,336.000,5.000,0
"07/12/06","07:03:25","AMMA06",80948.000,"cc",28285.113,6.00,2828.512,1,6,0.100,37897.000,0.200,35266.000,0.300,7061.000,0.500,506.000,1.000,218.000,5.000,0
"07/12/06","07:03:31","AMMA06",81396.000,"cc",28335.527,6.00,2833.553,1,6,0.100,37932.000,0.200,35648.000,0.300,7029.000,0.500,552.000,1.000,235.000,5.000,0
"07/12/06","07:03:37","AMMA06",80748.000,"cc",28388.074,6.00,2838.808,1,6,0.100,37727.000,0.200,35014.000,0.300,7131.000,0.500,603.000,1.000,273.000,5.000,0
"07/12/06","07:03:43","AMMA06",83532.000,"cc",28306.170,6.00,2830.617,1,6,0.100,38254.000,0.200,35911.000,0.300,7906.000,0.500,994.000,1.000,467.000,5.000,0
"07/12/06","07:03:49","AMMA06",84244.000,"cc",28323.816,6.00,2832.382,1,6,0.100,38561.000,0.200,36196.000,0.300,7904.000,0.500,1048.000,1.000,535.000,5.000,0
"07/12/06","07:03:55","AMMA06",83166.000,"cc",28322.449,6.00,2832.245,1,6,0.100,38064.000,0.200,36014.000,0.300,7719.000,0.500,927.000,1.000,442.000,5.000,0
"07/12/06","07:04:01","AMMA06",82034.000,"cc",28247.852,6.00,2824.785,1,6,0.100,37628.000,0.200,35846.000,0.300,7446.000,0.500,735.000,1.000,379.000,5.000,0
"07/12/06","07:04:07","AMMA06",81732.000,"cc",28307.410,6.00,2830.741,1,6,0.100,37057.000,0.200,36104.000,0.300,7586.000,0.500,657.000,1.000,328.000,5.000,0
"07/12/06","07:04:13","AMMA06",82782.000,"cc",28351.201,6.00,2835.120,1,6,0.100,37276.000,0.200,36467.000,0.300,7752.000,0.500,847.000,1.000,440.000,5.000,0
"07/12/06","07:04:19","AMMA06",81963.000,"cc",28314.785,6.00,2831.479,1,6,0.100,37406.000,0.200,35797.000,0.300,7580.000,0.500,769.000,1.000,411.000,5.000,0
"07/12/06","07:04:25","AMMA06",82342.000,"cc",28278.447,6.00,2827.845,1,6,0.100,37298.000,0.200,36561.000,0.300,7500.000,0.500,653.000,1.000,330.000,5.000,0
"07/12/06","07:04:31","AMMA06",81384.000,"cc",28318.848,6.00,2831.885,1,6,0.100,36728.000,0.200,35938.000,0.300,7718.000,0.500,682.000,1.000,318.000,5.000,0
"07/12/06","07:04:37","AMMA06",80663.000,"cc",28322.018,6.00,2832.202,1,6,0.100,36499.000,0.200,36035.000,0.300,7306.000,0.500,567.000,1.000,256.000,5.000,0
"07/12/06","07:04:43","AMMA06",80856.000,"cc",28299.311,6.00,2829.931,1,6,0.100,36532.000,0.200,36208.000,0.300,7381.000,0.500,508.000,1.000,227.000,5.000,0
"07/12/06","07:04:49","AMMA06",81043.000,"cc",28306.914,6.00,2830.692,1,6,0.100,36628.000,0.200,36109.000,0.300,7461.000,0.500,588.000,1.000,257.000,5.000,0
"07/12/06","07:04:55","AMMA06",82466.000,"cc",28345.908,6.00,2834.591,1,6,0.100,36915.000,0.200,36553.000,0.300,7755.000,0.500,827.000,1.000,416.000,5.000,0
"07/12/06","07:05:01","AMMA06",82069.000,"cc",28343.885,6.00,2834.389,1,6,0.100,36887.000,0.200,36062.000,0.300,7809.000,0.500,862.000,1.000,449.000,5.000,0
"07/12/06","07:05:07","AMMA06",81811.000,"cc",28333.367,6.00,2833.337,1,6,0.100,37023.000,0.200,36148.000,0.300,7566.000,0.500,684.000,1.000,390.000,5.000,0
"07/12/06","07:05:13","AMMA06",88617.000,"cc",28291.051,6.00,2829.105,1,6,0.100,39487.000,0.200,37583.000,0.300,9051.000,0.500,1597.000,1.000,899.000,5.000,0
"07/12/06","07:05:19","AMMA06",81859.000,"cc",28317.096,6.00,2831.710,1,6,0.100,36830.000,0.200,36454.000,0.300,7534.000,0.500,702.000,1.000,339.000,5.000,0
"07/12/06","07:05:25","AMMA06",84494.000,"cc",28323.998,6.00,2832.400,1,6,0.100,37838.000,0.200,36701.000,0.300,8224.000,0.500,1105.000,1.000,626.000,5.000,0
"07/12/06","07:05:31","AMMA06",83097.000,"cc",28324.721,6.00,2832.472,1,6,0.100,37464.000,0.200,36521.000,0.300,7822.000,0.500,824.000,1.000,466.000,5.000,0
"07/12/06","07:05:37","AMMA06",83541.000,"cc",28296.305,6.00,2829.631,1,6,0.100,37745.000,0.200,35971.000,0.300,8065.000,0.500,1128.000,1.000,632.000,5.000,0
"07/12/06","07:05:43","AMMA06",83534.000,"cc",28314.811,6.00,2831.481,1,6,0.100,37819.000,0.200,36190.000,0.300,8036.000,0.500,965.000,1.000,524.000,5.000,0
"07/12/06","07:05:49","AMMA06",83521.000,"cc",28311.231,6.00,2831.123,1,6,0.100,37533.000,0.200,36402.000,0.300,8022.000,0.500,998.000,1.000,566.000,5.000,0
"07/12/06","07:05:55","AMMA06",84188.000,"cc",28306.805,6.00,2830.681,1,6,0.100,38388.000,0.200,36261.000,0.300,7920.000,0.500,1027.000,1.000,592.000,5.000,0
"07/12/06","07:06:01","AMMA06",82388.000,"cc",28326.305,6.00,2832.631,1,6,0.100,37777.000,0.200,35688.000,0.300,7729.000,0.500,769.000,1.000,425.000,5.000,0
"07/12/06","07:06:07","AMMA06",86798.000,"cc",28343.910,6.00,2834.391,1,6,0.100,39002.000,0.200,36877.000,0.300,8613.000,0.500,1476.000,1.000,830.000,5.000,0
"07/12/06","07:06:13","AMMA06",85005.000,"cc",28305.859,6.00,2830.586,1,6,0.100,38624.000,0.200,36510.000,0.300,8159.000,0.500,1089.000,1.000,623.000,5.000,0
"07/12/06","07:06:19","AMMA06",83041.000,"cc",28296.895,6.00,2829.690,1,6,0.100,37862.000,0.200,36442.000,0.300,7631.000,0.500,758.000,1.000,348.000,5.000,0
"07/12/06","07:06:25","AMMA06",84133.000,"cc",28342.440,6.00,2834.244,1,6,0.100,38340.000,0.200,36222.000,0.300,7939.000,0.500,1056.000,1.000,576.000,5.000,0
"07/12/06","07:06:31","AMMA06",84399.000,"cc",28303.496,6.00,2830.350,1,6,0.100,38259.000,0.200,36535.000,0.300,8008.000,0.500,1055.000,1.000,542.000,5.000,0
"07/12/06","07:06:37","AMMA06",85130.000,"cc",28298.229,6.00,2829.823,1,6,0.100,38732.000,0.200,36509.000,0.300,8133.000,0.500,1116.000,1.000,639.000,5.000,1.000
"07/12/06","07:06:43","AMMA06",84920.000,"cc",28333.150,6.00,2833.315,1,6,0.100,38861.000,0.200,36062.000,0.300,8056.000,0.500,1255.000,1.000,686.000,5.000,0
"07/12/06","07:06:49","AMMA06",84477.000,"cc",28268.363,6.00,2826.836,1,6,0.100,38513.000,0.200,36273.000,0.300,8040.000,0.500,1096.000,1.000,555.000,5.000,0
"07/12/06","07:06:55","AMMA06",84536.000,"cc",28302.100,6.00,2830.210,1,6,0.100,38741.000,0.200,36182.000,0.300,7994.000,0.500,1062.000,1.000,557.000,5.000,0
"07/12/06","07:07:01","AMMA06",81970.000,"cc",28352.381,6.00,2835.238,1,6,0.100,37751.000,0.200,36128.000,0.300,7205.000,0.500,596.000,1.000,290.000,5.000,0
"07/12/06","07:07:07","AMMA06",82378.000,"cc",28341.297,6.00,2834.130,1,6,0.100,38623.000,0.200,35454.000,0.300,7295.000,0.500,690.000,1.000,315.000,5.000,1.000
"07/12/06","07:07:13","AMMA06",81663.000,"cc",28332.172,6.00,2833.217,1,6,0.100,37740.000,0.200,35848.000,0.300,7143.000,0.500,618.000,1.000,314.000,5.000,0
"07/12/06","07:07:19","AMMA06",81835.000,"cc",28272.289,6.00,2827.229,1,6,0.100,38097.000,0.200,35523.000,0.300,7269.000,0.500,652.000,1.000,294.000,5.000,0
"07/12/06","07:07:25","AMMA06",83015.000,"cc",28360.785,6.00,2836.079,1,6,0.100,38472.000,0.200,36162.000,0.300,7343.000,0.500,689.000,1.000,349.000,5.000,0
"07/12/06","07:07:31","AMMA06",83895.000,"cc",28269.725,6.00,2826.973,1,6,0.100,38688.000,0.200,35935.000,0.300,7734.000,0.500,1028.000,1.000,510.000,5.000,0
"07/12/06","07:07:37","AMMA06",81390.000,"cc",28286.297,6.00,2828.630,1,6,0.100,37772.000,0.200,35539.000,0.300,7198.000,0.500,605.000,1.000,276.000,5.000,0
"07/12/06","07:07:43","AMMA06",84565.000,"cc",28312.184,6.00,2831.219,1,6,0.100,38855.000,0.200,36359.000,0.300,7977.000,0.500,921.000,1.000,453.000,5.000,0
"07/12/06","07:07:49","AMMA06",85478.000,"cc",28370.023,6.00,2837.002,1,6,0.100,39645.000,0.200,36087.000,0.300,8096.000,0.500,1145.000,1.000,505.000,5.000,0
"07/12/06","07:07:55","AMMA06",82957.000,"cc",28340.592,6.00,2834.059,1,6,0.100,38556.000,0.200,35753.000,0.300,7591.000,0.500,760.000,1.000,297.000,5.000,0
"07/12/06","07:08:01","AMMA06",89767.000,"cc",28277.965,6.00,2827.797,1,6,0.100,41039.000,0.200,36759.000,0.300,9230.000,0.500,1824.000,1.000,914.000,5.000,1.000
"07/12/06","07:08:07","AMMA06",89779.000,"cc",28330.834,6.00,2833.084,1,6,0.100,40726.000,0.200,37088.000,0.300,9173.000,0.500,1798.000,1.000,994.000,5.000,0
"07/12/06","07:08:13","AMMA06",87525.000,"cc",28298.484,6.00,2829.849,1,6,0.100,39854.000,0.200,36685.000,0.300,8721.000,0.500,1490.000,1.000,775.000,5.000,0
"07/12/06","07:08:19","AMMA06",83249.000,"cc",28272.934,6.00,2827.294,1,6,0.100,38435.000,0.200,35832.000,0.300,7664.000,0.500,875.000,1.000,443.000,5.000,0
"07/12/06","07:08:25","AMMA06",84079.000,"cc",28362.633,6.00,2836.263,1,6,0.100,38789.000,0.200,36068.000,0.300,7753.000,0.500,995.000,1.000,474.000,5.000,0
"07/12/06","07:08:31","AMMA06",85932.000,"cc",28314.775,6.00,2831.478,1,6,0.100,39398.000,0.200,36432.000,0.300,8171.000,0.500,1222.000,1.000,709.000,5.000,0
"07/12/06","07:08:37","AMMA06",84585.000,"cc",28322.486,6.00,2832.249,1,6,0.100,38781.000,0.200,36157.000,0.300,8091.000,0.500,1030.000,1.000,526.000,5.000,0
"07/12/06","07:08:43","AMMA06",88469.000,"cc",28390.650,6.00,2839.065,1,6,0.100,41598.000,0.200,36971.000,0.300,8169.000,0.500,1138.000,1.000,593.000,5.000,0
"07/12/06","07:08:49","AMMA06",84078.000,"cc",28308.785,6.00,2830.879,1,6,0.100,38678.000,0.200,36352.000,0.300,7672.000,0.500,910.000,1.000,465.000,5.000,1.000
"07/12/06","07:08:55","AMMA06",83290.000,"cc",28309.887,6.00,2830.989,1,6,0.100,38197.000,0.200,36100.000,0.300,7693.000,0.500,874.000,1.000,426.000,5.000,0
"07/12/06","07:09:01","AMMA06",82889.000,"cc",28285.307,6.00,2828.531,1,6,0.100,37847.000,0.200,36050.000,0.300,7716.000,0.500,886.000,1.000,390.000,5.000,0
"07/12/06","07:09:07","AMMA06",82731.000,"cc",28326.943,6.00,2832.695,1,6,0.100,37698.000,0.200,36279.000,0.300,7603.000,0.500,767.000,1.000,384.000,5.000,0
"07/12/06","07:09:13","AMMA06",85643.000,"cc",28326.850,6.00,2832.685,1,6,0.100,38889.000,0.200,36641.000,0.300,8131.000,0.500,1289.000,1.000,693.000,5.000,0
"07/12/06","07:09:19","AMMA06",83890.000,"cc",28349.682,6.00,2834.968,1,6,0.100,37692.000,0.200,36691.000,0.300,7875.000,0.500,991.000,1.000,640.000,5.000,1.000
"07/12/06","07:09:25","AMMA06",81814.000,"cc",28273.473,6.00,2827.347,1,6,0.100,37261.000,0.200,36060.000,0.300,7582.000,0.500,616.000,1.000,294.000,5.000,1.000
"07/12/06","07:09:31","AMMA06",82565.000,"cc",28338.063,6.00,2833.806,1,6,0.100,37337.000,0.200,36284.000,0.300,7774.000,0.500,781.000,1.000,389.000,5.000,0
"07/12/06","07:09:37","AMMA06",82725.000,"cc",28309.223,6.00,2830.922,1,6,0.100,37450.000,0.200,36387.000,0.300,7696.000,0.500,763.000,1.000,428.000,5.000,1.000
"07/12/06","07:09:43","AMMA06",84766.000,"cc",28344.705,6.00,2834.471,1,6,0.100,38416.000,0.200,36476.000,0.300,8188.000,0.500,1089.000,1.000,596.000,5.000,1.000
"07/12/06","07:09:49","AMMA06",82656.000,"cc",28307.152,6.00,2830.715,1,6,0.100,38011.000,0.200,35916.000,0.300,7583.000,0.500,759.000,1.000,386.000,5.000,1.000
"07/12/06","07:09:55","AMMA06",84394.000,"cc",28310.004,6.00,2831.001,1,6,0.100,38194.000,0.200,36751.000,0.300,7944.000,0.500,967.000,1.000,538.000,5.000,0
"07/12/06","07:10:01","AMMA06",81436.000,"cc",28316.895,6.00,2831.690,1,6,0.100,37251.000,0.200,35975.000,0.300,7355.000,0.500,604.000,1.000,251.000,5.000,0
"07/12/06","07:10:07","AMMA06",81361.000,"cc",28318.897,6.00,2831.890,1,6,0.100,37252.000,0.200,35936.000,0.300,7301.000,0.500,599.000,1.000,273.000,5.000,0
"07/12/06","07:10:13","AMMA06",82256.000,"cc",28288.037,6.00,2828.804,1,6,0.100,37568.000,0.200,36084.000,0.300,7523.000,0.500,731.000,1.000,350.000,5.000,0
"07/12/06","07:10:19","AMMA06",82801.000,"cc",28291.543,6.00,2829.155,1,6,0.100,37881.000,0.200,36047.000,0.300,7543.000,0.500,891.000,1.000,439.000,5.000,0
"07/12/06","07:10:25","AMMA06",81283.000,"cc",28318.549,6.00,2831.855,1,6,0.100,37652.000,0.200,35947.000,0.300,6971.000,0.500,507.000,1.000,206.000,5.000,0
"07/12/06","07:10:31","AMMA06",81331.000,"cc",28313.463,6.00,2831.346,1,6,0.100,38010.000,0.200,35655.000,0.300,6941.000,0.500,520.000,1.000,205.000,5.000,0
"07/12/06","07:10:37","AMMA06",81158.000,"cc",28353.529,6.00,2835.353,1,6,0.100,37925.000,0.200,35481.000,0.300,7021.000,0.500,507.000,1.000,224.000,5.000,0
"07/12/06","07:10:43","AMMA06",82088.000,"cc",28331.363,6.00,2833.137,1,6,0.100,38065.000,0.200,35747.000,0.300,7301.000,0.500,644.000,1.000,331.000,5.000,0
"07/12/06","07:10:49","AMMA06",81643.000,"cc",28310.301,6.00,2831.030,1,6,0.100,37736.000,0.200,35737.000,0.300,7289.000,0.500,591.000,1.000,290.000,5.000,0
"07/12/06","07:10:55","AMMA06",83582.000,"cc",28320.035,6.00,2832.004,1,6,0.100,38529.000,0.200,36272.000,0.300,7536.000,0.500,834.000,1.000,411.000,5.000,0
"07/12/06","07:11:01","AMMA06",81752.000,"cc",28280.889,6.00,2828.089,1,6,0.100,37995.000,0.200,35452.000,0.300,7279.000,0.500,718.000,1.000,308.000,5.000,0
"07/12/06","07:11:07","AMMA06",81684.000,"cc",28352.496,6.00,2835.250,1,6,0.100,38425.000,0.200,35220.000,0.300,7075.000,0.500,637.000,1.000,327.000,5.000,0
"07/12/06","07:11:13","AMMA06",81505.000,"cc",28362.672,6.00,2836.267,1,6,0.100,38151.000,0.200,35478.000,0.300,6952.000,0.500,633.000,1.000,291.000,5.000,0
"07/12/06","07:11:19","AMMA06",81104.000,"cc",28332.227,6.00,2833.223,1,6,0.100,38235.000,0.200,34937.000,0.300,7050.000,0.500,637.000,1.000,245.000,5.000,0
"07/12/06","07:11:25","AMMA06",83234.000,"cc",28295.981,6.00,2829.598,1,6,0.100,38929.000,0.200,35324.000,0.300,7594.000,0.500,931.000,1.000,456.000,5.000,0
"07/12/06","07:11:31","AMMA06",84210.000,"cc",28279.047,6.00,2827.905,1,6,0.100,39188.000,0.200,35528.000,0.300,7922.000,0.500,1046.000,1.000,526.000,5.000,0
"07/12/06","07:11:37","AMMA06",83325.000,"cc",28321.068,6.00,2832.107,1,6,0.100,38990.000,0.200,35687.000,0.300,7396.000,0.500,832.000,1.000,420.000,5.000,0
"07/12/06","07:11:43","AMMA06",81965.000,"cc",28328.813,6.00,2832.881,1,6,0.100,38759.000,0.200,35174.000,0.300,7111.000,0.500,647.000,1.000,274.000,5.000,0
"07/12/06","07:11:49","AMMA06",81331.000,"cc",28332.768,6.00,2833.277,1,6,0.100,38304.000,0.200,35088.000,0.300,7008.000,0.500,618.000,1.000,313.000,5.000,0
"07/12/06","07:11:55","AMMA06",80569.000,"cc",28337.953,6.00,2833.795,1,6,0.100,37649.000,0.200,35112.000,0.300,7032.000,0.500,541.000,1.000,235.000,5.000,0
"07/12/06","07:12:01","AMMA06",80436.000,"cc",28268.672,6.00,2826.867,1,6,0.100,38048.000,0.200,34778.000,0.300,6973.000,0.500,459.000,1.000,178.000,5.000,0
"07/12/06","07:12:07","AMMA06",80542.000,"cc",28306.592,6.00,2830.659,1,6,0.100,37803.000,0.200,35172.000,0.300,6878.000,0.500,476.000,1.000,213.000,5.000,0
"07/12/06","07:12:13","AMMA06",80364.000,"cc",28337.207,6.00,2833.721,1,6,0.100,37517.000,0.200,35480.000,0.300,6815.000,0.500,384.000,1.000,168.000,5.000,0
"07/12/06","07:12:19","AMMA06",80746.000,"cc",28271.465,6.00,2827.147,1,6,0.100,37917.000,0.200,35338.000,0.300,6891.000,0.500,447.000,1.000,153.000,5.000,0
"07/12/06","07:12:25","AMMA06",80982.000,"cc",28302.416,6.00,2830.242,1,6,0.100,37704.000,0.200,35929.000,0.300,6788.000,0.500,398.000,1.000,163.000,5.000,0
"07/12/06","07:12:31","AMMA06",81486.000,"cc",28319.725,6.00,2831.973,1,6,0.100,37928.000,0.200,35541.000,0.300,7188.000,0.500,571.000,1.000,258.000,5.000,0
"07/12/06","07:12:37","AMMA06",81688.000,"cc",28326.180,6.00,2832.618,1,6,0.100,38188.000,0.200,35719.000,0.300,7033.000,0.500,521.000,1.000,227.000,5.000,0
"07/12/06","07:12:43","AMMA06",82567.000,"cc",28361.920,6.00,2836.192,1,6,0.100,37732.000,0.200,36379.000,0.300,7407.000,0.500,706.000,1.000,343.000,5.000,0
"07/12/06","07:12:49","AMMA06",82386.000,"cc",28305.828,6.00,2830.583,1,6,0.100,38276.000,0.200,35932.000,0.300,7194.000,0.500,666.000,1.000,318.000,5.000,0
"07/12/06","07:12:55","AMMA06",81551.000,"cc",28287.654,6.00,2828.766,1,6,0.100,37545.000,0.200,35947.000,0.300,7284.000,0.500,551.000,1.000,224.000,5.000,0
"07/12/06","07:13:01","AMMA06",82950.000,"cc",28325.057,6.00,2832.506,1,6,0.100,37908.000,0.200,36333.000,0.300,7543.000,0.500,791.000,1.000,375.000,5.000,0
"07/12/06","07:13:07","AMMA06",82989.000,"cc",28303.268,6.00,2830.327,1,6,0.100,38068.000,0.200,36249.000,0.300,7595.000,0.500,735.000,1.000,342.000,5.000,0
"07/12/06","07:13:13","AMMA06",84226.000,"cc",28355.662,6.00,2835.566,1,6,0.100,38816.000,0.200,36214.000,0.300,7827.000,0.500,903.000,1.000,466.000,5.000,0
"07/12/06","07:13:19","AMMA06",83372.000,"cc",28331.307,6.00,2833.131,1,6,0.100,38033.000,0.200,36567.000,0.300,7626.000,0.500,760.000,1.000,386.000,5.000,0
"07/12/06","07:13:25","AMMA06",81566.000,"cc",28291.127,6.00,2829.113,1,6,0.100,37323.000,0.200,35989.000,0.300,7350.000,0.500,636.000,1.000,268.000,5.000,0
"07/12/06","07:13:31","AMMA06",82236.000,"cc",28294.184,6.00,2829.419,1,6,0.100,37693.000,0.200,35998.000,0.300,7491.000,0.500,723.000,1.000,331.000,5.000,0
"07/12/06","07:13:37","AMMA06",83355.000,"cc",28350.482,6.00,2835.048,1,6,0.100,38137.000,0.200,36335.000,0.300,7694.000,0.500,780.000,1.000,409.000,5.000,0
"07/12/06","07:13:43","AMMA06",82931.000,"cc",28267.256,6.00,2826.726,1,6,0.100,37771.000,0.200,36243.000,0.300,7652.000,0.500,848.000,1.000,417.000,5.000,0
"07/12/06","07:13:49","AMMA06",83329.000,"cc",28329.775,6.00,2832.978,1,6,0.100,37970.000,0.200,36120.000,0.300,7768.000,0.500,988.000,1.000,483.000,5.000,0
"07/12/06","07:13:55","AMMA06",83309.000,"cc",28346.459,6.00,2834.646,1,6,0.100,38315.000,0.200,35907.000,0.300,7742.000,0.500,881.000,1.000,464.000,5.000,0
"07/12/06","07:14:01","AMMA06",83512.000,"cc",28346.801,6.00,2834.680,1,6,0.100,37882.000,0.200,36172.000,0.300,8023.000,0.500,947.000,1.000,488.000,5.000,0
"07/12/06","07:14:07","AMMA06",85932.000,"cc",28321.158,6.00,2832.116,1,6,0.100,38660.000,0.200,36976.000,0.300,8388.000,0.500,1248.000,1.000,660.000,5.000,0
"07/12/06","07:14:13","AMMA06",87103.000,"cc",28318.217,6.00,2831.822,1,6,0.100,39409.000,0.200,36865.000,0.300,8693.000,0.500,1382.000,1.000,754.000,5.000,0